星链-32748 (STARLINK-32748)

导读 | 豆包AI

STARLINK-32748是美国SpaceX公司星链(Starlink)星座的成员卫星,于2025年1月8日发射入轨。星链项目旨在构建低轨卫星互联网系统,为全球尤其是偏远欠发达地区提供高速低延迟宽带服务,该卫星配备相控阵天线与氪燃料推进系统,运行在近地轨道,助力星链持续扩展全球网络覆盖,进一步完善卫星互联网的服务能力,推动全球互联互通。

基本信息
目录编号:
62524
目录名称:
STARLINK-32748
国际标识:
2025-004P
轨道中心:
EARTH
卫星名称:
星链-32748
卫星全名:
星链-32748 (STARLINK-32748)
卫星状态:
在轨 (已飞行431 天)
发射日期:
2025-01-08 UTC
国别 :
美国 (US)
星等 :
--
轨道信息
数据来源 国际轨道数据
星历时间: 2026-03-15T01:51:09+0800
11小时前
查看轨道信息
半长轴: 6861.02km
偏心率: 0.0001641
轨道倾角: 43.003°
近地点辐角 289.141°
升交点赤经 191.154°
平近点角 70.927°
近地点: 481.757km
远地点: 484.009km
周期: 94.263分钟
每日圈数: 15.276358
详细信息
固有亮度:
5
最大亮度:
2.5
卫星平台:
Starlink V1.0
覆盖范围:
全球
运营商:
太空探索技术公司
运营商所在国:
美国
制造商(研发单位):
太空探索技术公司
制造商所在国:
美国
使用方式:
暂无
卫星简介
Starlink 计划是 SpaceX 推出的全球卫星互联网项目,通过发射低轨道卫星,为全球尤其是偏远地区提供高速、低延迟的互联网服务。自 2019 年起,Starlink 已部署数千颗卫星,旨在缩小全球数字鸿沟,推动互联网普及。该项目还为军事、航空等行业提供通信支持,带来广泛经济效益。
2D轨道图
3D轨道图
轨道高度分析图
轨道倾角分析图
轨道综合分析图
查看轨道综合分析图